Weather observations for the past three days for
Leesburg International Airport
Imperial (Metric)
Date Time (edt) Wind (mph) Vis. (mi.) Weather Sky Cond. Temperature (ºF) Relative Humidity Wind Chill (°F) Heat Index (°F) Pressure Precipitation (in)
Air Dwpt 6 hour altimeter (in) sea level (mb) 1 hr 3 hr 6 hr
Max. Min.
18 15:53 SE 7 10.00 Fair CLR 93.9 72 49% 102 30.04 1017.1
18 14:53 Vrbl 6 10.00 Fair CLR 93 73 52% 102 30.05 1017.3
18 13:53 SE 6 10.00 A Few Clouds FEW046 91.9 73.9 93 80.1 56% 102 30.08 1018.3
18 12:53 S 7 10.00 Fair CLR 91 75.9 61% 103 30.1 1019.0
18 11:53 SW 3 10.00 Fair CLR 89.1 78.1 70% 103 30.11 1019.6
18 10:53 S 7 10.00 A Few Clouds FEW020 86 78.1 77% 98 30.12 1019.9
18 09:53 SW 6 10.00 Fair CLR 82.9 77 82% 92 30.12 1019.8
18 08:53 S 6 10.00 Fair CLR 82 77 85% 90 30.11 1019.4
18 07:53 Calm 10.00 Fair CLR 80.1 75.9 80.1 75 87% 85 30.09 1019.0
18 06:53 S 5 10.00 Fair CLR 79 75.9 90% 83 30.07 1018.0
18 05:53 S 7 10.00 Fair CLR 80.1 77 90% 86 30.04 1017.0
18 04:53 S 5 10.00 Fair CLR 78.1 75.9 93% 81 30.03 1016.9
18 03:53 Calm 10.00 Fair CLR 77 75 94% 78 30.04 1017.0
18 02:53 SE 5 10.00 Fair CLR 78.1 75.9 93% 81 30.05 1017.4
18 01:53 Calm 10.00 Fair CLR 75.9 75 78.1 75.9 97% 75 30.08 1018.4
18 00:53 Calm 10.00 Fair CLR 77 75 94% 78 30.08 1018.4
17 23:53 S 3 10.00 Fair CLR 75.9 75 97% 75 30.09 1018.8
17 22:53 Calm 10.00 Fair CLR 75.9 75 97% 75 30.1 1019.2
17 21:53 Calm 10.00 Fair CLR 77 75 94% 78 30.1 1019.2
17 20:53 E 3 10.00 Fair CLR 78.1 75 90% 81 30.09 1018.7
17 19:53 Calm 10.00 A Few Clouds FEW110 78.1 75.9 91.9 75 93% 81 30.06 1017.8 0.07
17 18:53 NE 3 10.00 Fair CLR 78.1 75.9 93% 81 30.06 1017.6
17 17:53 E 3 10.00 Thunderstorm in Vicinity FEW075 SCT100 77 75 94% 78 30.09 1018.8
17 16:53 NW 5 10.00 A Few Clouds FEW100 FEW120 75.9 73.9 94% 75 30.1 1019.0 0.06 0.07
17 15:53 W 20 G 31 10.00 Thunderstorm Light Rain FEW033 BKN045 OVC100 79 75 88% 83 30.12 1019.6 0.01
17 14:53 SE 5 10.00 Fair CLR 90 73 58% 98 30.06 1017.8
17 13:53 SE 5 10.00 Fair CLR 91.9 73.9 91.9 79 56% 102 30.09 1018.8
17 12:53 Vrbl 6 10.00 Fair CLR 91 73.9 57% 101 30.11 1019.4
17 11:53 SE 6 10.00 Fair CLR 87.1 78.1 75% 100 30.11 1019.4
17 10:53 S 6 10.00 Fair CLR 84.9 78.1 80% 97 30.11 1019.6
17 09:53 S 5 10.00 Fair CLR 82.9 77 82% 92 30.12 1019.8
17 08:53 S 7 10.00 Fair CLR 81 75.9 85% 87 30.11 1019.3
17 06:53 SE 3 10.00 Fair CLR 75.9 73.9 94% 75 30.06 1017.9
17 05:53 S 5 10.00 Fair CLR 77 73.9 90% 78 30.05 1017.5
17 04:53 S 7 10.00 Fair CLR 77 75 94% 78 30.03 1016.7
17 03:53 S 5 10.00 Fair CLR 75.9 73.9 94% 75 30.03 1016.8
17 02:53 Calm 10.00 Fair CLR 75 73.9 96% 73 30.06 1017.6
17 01:53 Calm 8.00 Fair CLR 75.9 75 79 75 97% 75 30.07 1018.0
17 00:53 S 6 10.00 Fair CLR 77 75 94% 78 30.08 1018.3
16 23:53 S 7 10.00 Fair CLR 77 73.9 90% 78 30.1 1019.2
16 22:53 SW 3 10.00 Fair CLR 77 75 94% 78 30.11 1019.4
16 21:53 Calm 10.00 Fair CLR 77 75 94% 78 30.09 1018.9
16 20:53 S 7 10.00 Fair CLR 78.1 75 90% 81 30.08 1018.3
16 19:53 SE 6 10.00 Fair CLR 78.1 73.9 93 75 87% 81 30.06 1017.9 0.11
16 18:53 SE 5 10.00 A Few Clouds FEW039 78.1 75 90% 81 30.05 1017.5
16 17:53 SE 8 10.00 Partly Cloudy FEW046 SCT090 78.1 75.9 93% 81 30.07 1018.0 0.01
16 16:53 NE 3 8.00 Light Rain BKN100 75.9 75 97% 75 30.05 1017.4 0.05 0.1
16 15:53 NE 3 8.00 Light Rain FEW090 SCT110 75.9 73 91% 76 30.1 1019.0 0.04
16 14:53 W 10 G 23 8.00 Thunderstorm Light Rain FEW022 FEW100 SCT110 77 73.9 90% 78 30.1 1019.2 0.01
16 13:53 S 6 10.00 Thunderstorm in Vicinity CLR 89.1 73 91.9 80.1 59% 97 30.07 1018.1
16 12:53 SE 5 10.00 Light Rain FEW039 SCT060 BKN100 91 78.1 66% 106 30.08 1018.5
16 11:53 Vrbl 3 10.00 Fair CLR 90 78.1 68% 105 30.1 1019.0
16 10:53 Vrbl 3 10.00 Fair CLR 87.1 79 77% 101 30.09 1018.9
16 09:53 SE 5 10.00 Fair CLR 84 79 85% 96 30.11 1019.3
16 08:53 SE 6 10.00 Fair CLR 82 78.1 88% 91 30.09 1018.9
16 07:53 SE 5 10.00 Fair CLR 80.1 78.1 80.1 75 94% 86 30.08 1018.6
16 06:53 SE 3 10.00 Fair CLR 78.1 77 97% 81 30.06 1017.8
16 05:53 SE 5 10.00 Fair CLR 75.9 75 97% 75 30.04 1017.0
16 04:53 Calm 10.00 Fair CLR 77 75.9 96% 78 30.03 1016.8
16 03:53 NE 3 10.00 Fair CLR 77 75.9 96% 78 30.04 1017.0
16 02:53 Calm 10.00 Partly Cloudy SCT070 75.9 75 97% 75 30.05 1017.5
16 01:53 NW 3 10.00 Fair CLR 77 75 79 75.9 94% 78 30.07 1018.1
16 00:53 SW 3 10.00 Fair CLR 78.1 75.9 93% 81 30.08 1018.3
15 22:53 SE 8 10.00 Fair CLR 79 75 88% 83 30.07 1018.1
15 21:53 Calm 10.00 Fair CLR 78.1 75 90% 81 30.06 1017.7
15 20:53 S 6 10.00 Fair CLR 79 73 82% 82 30.07 1018.1
15 19:53 E 7 10.00 Fair CLR 77 75 93.9 75.9 94% 78 30.07 1018.2 0.05
15 18:53 E 9 7.00 Light Rain FEW031 BKN090 OVC110 78.1 75.9 93% 81 30.06 1017.9 0.03
15 17:53 W 12 G 24 5.00 Thunderstorm Rain Fog/Mist FEW055 SCT070 BKN110 78.1 73.9 87% 81 30.04 1017.2 0.02
15 16:53 SW 6 10.00 Thunderstorm in Vicinity SCT100 SCT120 91 72 54% 99 30.02 1016.4
Date Time (edt) Wind (mph) Vis. (mi.) Weather Sky Cond. Air Dwpt Max. Min. Relative Humidity Wind Chill (°F) Heat Index (°F) altimeter (in) sea level (mb) 1 hr 3 hr 6 hr
6 hour
Temperature (ºF) Pressure Precipitation (in)